EW7349 Weather Reports


time (UTC)temp
F
wind
direction
speed
knots
gust
knots
rain 1hr
in
rain 24hr
in
rain mn
in
humidity
%
barometer
mb
20260505032258 64 188 0.0 2.6 0.00 0.00 0.00 61 1010.9
20260505031751 64 214 0.0 2.6 0.00 0.00 0.00 60 1010.9
20260505031245 64 247 0.0 1.7 0.00 0.00 0.00 60 1011.0
20260505030739 64 341 0.0 1.7 0.00 0.00 0.00 59 1011.0
20260505030234 64 188 0.0 1.7 0.00 0.00 0.00 59 1011.0
20260505025727 65 188 0.9 2.6 0.00 0.00 0.00 59 1011.0
20260505025706 65 212 0.9 2.6 0.00 0.00 0.00 59 1011.0
20260505024716 65 198 0.0 1.7 0.00 0.00 0.00 58 1011.0
20260505024210 65 234 0.0 1.7 0.00 0.00 0.00 58 1011.0
20260505023703 65 234 0.0 1.7 0.00 0.00 0.00 57 1011.0
20260505023158 66 108 0.0 1.7 0.00 0.00 0.00 56 1010.9
20260505022658 66 313 0.0 2.6 0.00 0.00 0.00 56 1010.9
20260505022154 66 235 0.0 2.6 0.00 0.00 0.00 56 1010.9
20260505021653 66 199 0.0 2.6 0.00 0.00 0.00 55 1010.9
20260505021151 66 252 0.0 1.7 0.00 0.00 0.00 54 1010.9
20260505020912 67 242 0.0 1.7 0.00 0.00 0.00 53 1010.9
20260505020152 67 234 0.0 1.7 0.00 0.00 0.00 53 1010.9
20260505015653 67 234 0.0 1.7 0.00 0.00 0.00 53 1010.8
20260505015156 67 123 0.0 1.7 0.00 0.00 0.00 52 1010.8
20260505015133 67 190 0.0 1.7 0.00 0.00 0.00 51 1010.8
20260505014153 68 202 0.0 1.7 0.00 0.00 0.00 51 1010.7
20260505013654 68 243 0.0 1.7 0.00 0.00 0.00 50 1010.7
20260505013421 68 252 0.0 1.7 0.00 0.00 0.00 50 1010.7
20260505012649 68 207 0.0 1.7 0.00 0.00 0.00 49 1010.4
20260505012149 69 244 0.9 3.5 0.00 0.00 0.00 49 1010.6
20260505011649 69 198 0.9 3.5 0.00 0.00 0.00 48 1010.6
20260505011149 69 252 0.9 3.5 0.00 0.00 0.00 49 1010.6
20260505010648 69 104 0.0 2.6 0.00 0.00 0.00 47 1010.5
20260505010147 69 220 0.9 4.3 0.00 0.00 0.00 46 1010.4
20260505005909 70 243 0.9 4.3 0.00 0.00 0.00 47 1010.4
20260505005149 70 214 0.9 3.5 0.00 0.00 0.00 46 1010.3
20260505004649 70 234 0.0 1.7 0.00 0.00 0.00 45 1010.2
20260505004149 71 273 0.0 1.7 0.00 0.00 0.00 45 1010.2
20260505003908 71 312 0.0 1.7 0.00 0.00 0.00 44 1010.2
20260505003148 71 248 0.0 2.6 0.00 0.00 0.00 44 1010.2
20260505002648 71 252 0.9 5.2 0.00 0.00 0.00 44 1010.2
20260505002148 71 246 0.9 5.2 0.00 0.00 0.00 43 1010.2
20260505001647 72 225 0.9 7.0 0.00 0.00 0.00 43 1010.1
20260505001148 72 257 0.0 7.0 0.00 0.00 0.00 44 1010.1
20260505000647 72 197 0.0 0.9 0.00 0.00 0.00 44 1010.1
20260505000144 72 204 0.0 0.9 0.00 0.00 0.00 44 1010.1
20260504235644 73 232 0.0 0.9 0.00 0.00 0.00 43 1010.1
20260504235143 73 243 0.0 0.9 0.00 0.00 0.00 43 1010.1
20260504234646 73 198 0.0 0.9 0.00 0.00 0.00 43 1010.0
20260504234144 73 217 0.0 1.7 0.00 0.00 0.00 43 1010.0
20260504233645 73 217 0.9 3.5 0.00 0.00 0.00 40 1010.0
20260504233144 73 184 0.9 3.5 0.00 0.00 0.00 40 1010.1
20260504232645 73 207 0.9 3.5 0.00 0.00 0.00 40 1010.1
20260504232143 74 223 0.9 3.5 0.00 0.00 0.00 40 1009.9
20260504231645 74 263 0.9 4.3 0.00 0.00 0.00 40 1009.9
20260504230641 74 136 1.7 6.1 0.00 0.00 0.00 39 1009.7
20260504230143 74 248 1.7 7.0 0.00 0.00 0.00 39 1009.7
20260504225642 74 257 1.7 7.0 0.00 0.00 0.00 38 1009.7
20260504225633 74 217 0.9 7.0 0.00 0.00 0.00 38 1009.8
20260504224901 74 209 1.7 6.1 0.00 0.00 0.00 39 1009.8
20260504224142 74 315 1.7 10.4 0.00 0.00 0.00 38 1009.8
20260504223636 75 267 1.7 10.4 0.00 0.00 0.00 37 1009.8
20260504223130 75 179 1.7 9.6 0.00 0.00 0.00 37 1009.7
20260504222624 75 225 1.7 6.1 0.00 0.00 0.00 38 1009.7
20260504222118 75 317 1.7 5.2 0.00 0.00 0.00 38 1009.7
20260504221611 75 148 1.7 7.0 0.00 0.00 0.00 37 1009.8
20260504221104 75 234 2.6 9.6 0.00 0.00 0.00 37 1009.9
20260504220558 75 310 3.5 9.6 0.00 0.00 0.00 36 1009.9
20260504220052 76 228 2.6 9.6 0.00 0.00 0.00 37 1009.9
20260504215545 75 208 1.7 7.0 0.00 0.00 0.00 36 1010.0
20260504215301 75 236 1.7 8.7 0.00 0.00 0.00 36 1009.9
20260504214535 75 272 1.7 8.7 0.00 0.00 0.00 36 1009.8
20260504214245 75 308 1.7 7.8 0.00 0.00 0.00 36 1009.7
20260504213523 76 150 2.6 6.1 0.00 0.00 0.00 35 1009.7
20260504213016 76 219 1.7 9.6 0.00 0.00 0.00 36 1009.8
20260504212511 76 175 1.7 9.6 0.00 0.00 0.00 35 1009.8
20260504212004 76 140 1.7 8.7 0.00 0.00 0.00 35 1009.9
20260504211458 76 56 1.7 8.7 0.00 0.00 0.00 34 1009.8
20260504210952 76 133 1.7 5.2 0.00 0.00 0.00 34 1009.8
20260504210709 76 128 2.6 7.8 0.00 0.00 0.00 34 1009.9
20260504205941 76 219 2.6 7.8 0.00 0.00 0.00 34 1009.9
20260504205435 76 211 1.7 7.8 0.00 0.00 0.00 34 1009.8
20260504204928 76 217 1.7 7.8 0.00 0.00 0.00 33 1009.8
20260504204422 76 86 2.6 7.0 0.00 0.00 0.00 36 1009.9
20260504203916 75 188 2.6 7.0 0.00 0.00 0.00 33 1009.9
20260504203410 77 235 2.6 7.0 0.00 0.00 0.00 32 1010.0
20260504202904 77 281 1.7 5.2 0.00 0.00 0.00 32 1010.0
20260504202359 78 155 1.7 5.2 0.00 0.00 0.00 35 1010.0
20260504201851 79 321 1.7 7.8 0.00 0.00 0.00 32 1010.0
20260504201347 80 152 2.6 7.8 0.00 0.00 0.00 33 1009.9
20260504200841 80 230 2.6 7.8 0.00 0.00 0.00 30 1009.9
20260504200557 79 117 2.6 7.8 0.00 0.00 0.00 30 1009.8
20260504195828 80 171 2.6 7.8 0.00 0.00 0.00 31 1010.1
20260504195322 80 273 1.7 7.8 0.00 0.00 0.00 30 1010.0
20260504194816 80 146 1.7 7.8 0.00 0.00 0.00 29 1010.1
20260504194311 79 190 2.6 7.8 0.00 0.00 0.00 32 1010.2
20260504193804 78 288 2.6 7.8 0.00 0.00 0.00 31 1010.2
20260504193259 78 171 2.6 7.8 0.00 0.00 0.00 30 1010.3
20260504192752 78 169 2.6 9.6 0.00 0.00 0.00 29 1010.5
20260504192246 79 280 1.7 9.6 0.00 0.00 0.00 33 1010.4
20260504191741 79 345 1.7 5.2 0.00 0.00 0.00 29 1010.5
20260504191236 80 273 1.7 6.1 0.00 0.00 0.00 30 1010.6
20260504190951 79 273 1.7 8.7 0.00 0.00 0.00 29 1010.7
20260504190446 78 279 2.6 9.6 0.00 0.00 0.00 29 1010.8
20260504185934 79 19 2.6 9.6 0.00 0.00 0.00 29 1010.9
20260504185435 78 292 1.7 9.6 0.00 0.00 0.00 29 1011.0
20260504184704 78 175 2.6 9.6 0.00 0.00 0.00 29 1011.1
20260504184158 79 239 1.7 6.1 0.00 0.00 0.00 34 1011.1
20260504183652 77 295 2.6 11.3 0.00 0.00 0.00 31 1011.3
20260504183147 77 249 3.5 13.0 0.00 0.00 0.00 30 1011.4
20260504182640 77 289 3.5 7.8 0.00 0.00 0.00 29 1011.5
20260504182136 78 251 2.6 7.8 0.00 0.00 0.00 30 1011.7
20260504181629 78 145 2.6 7.0 0.00 0.00 0.00 30 1011.6
20260504181122 78 97 2.6 7.0 0.00 0.00 0.00 31 1011.7
20260504180616 78 252 2.6 6.1 0.00 0.00 0.00 30 1011.7
20260504180111 78 213 2.6 8.7 0.00 0.00 0.00 29 1011.7
20260504175606 76 318 2.6 9.6 0.00 0.00 0.00 32 1011.8
20260504175058 77 175 2.6 9.6 0.00 0.00 0.00 31 1011.8
20260504174552 77 129 2.6 7.8 0.00 0.00 0.00 30 1012.0
20260504174047 76 282 2.6 7.8 0.00 0.00 0.00 31 1012.1
20260504173540 77 242 2.6 7.0 0.00 0.00 0.00 34 1012.3
20260504173034 76 287 2.6 7.0 0.00 0.00 0.00 30 1012.3
20260504172529 74 277 2.6 7.0 0.00 0.00 0.00 32 1012.1
20260504172030 75 245 1.7 6.1 0.00 0.00 0.00 32 1012.3
20260504171753 75 37 2.6 7.0 0.00 0.00 0.00 33 1012.5
20260504171028 75 242 2.6 8.7 0.00 0.00 0.00 35 1012.4
20260504170529 76 336 1.7 9.6 0.00 0.00 0.00 32 1012.5
20260504151019 68 220 1.7 10.4 0.00 0.00 0.00 38 1014.0
20260504150520 67 259 1.7 5.2 0.00 0.00 0.00 40 1013.9
20260504141015 61 250 0.9 5.2 0.00 0.00 0.00 49 1014.2
20260504140512 60 26 1.7 5.2 0.00 0.00 0.00 51 1014.2
20260504130442 53 265 0.9 5.2 0.00 0.00 0.00 62 1014.7
20260504110353 49 242 0.0 1.7 0.00 0.00 0.00 67 1015.0
20260504100240 49 254 0.9 4.3 0.00 0.00 0.00 69 1014.8
20260504090129 49 238 0.0 0.9 0.00 0.00 0.00 68 1015.1
20260504081753 50 205 0.0 0.9 0.00 0.00 0.00 66 1015.3
20260504081250 50 239 0.0 0.0 0.00 0.00 0.00 66 1015.2
20260504080523 50 239 0.0 0.0 0.00 0.00 0.00 66 1015.2
20260504070411 50 147 0.0 0.9 0.00 0.00 0.00 63 1015.0
20260504070132 50 147 0.0 0.9 0.00 0.00 0.00 63 1015.0
20260504050341 49 117 0.0 0.0 0.00 0.00 0.00 69 1015.4
20260504045605 49 117 0.0 0.0 0.00 0.00 0.00 69 1015.4
20260504044836 48 117 0.0 0.0 0.00 0.00 0.00 69 1015.4
20260504044337 48 117 0.0 0.0 0.00 0.00 0.00 69 1015.4
20260504043835 48 117 0.0 0.0 0.00 0.00 0.00 69 1015.4
20260504043336 48 117 0.0 0.0 0.00 0.00 0.00 70 1015.3
20260504042835 48 117 0.0 0.0 0.00 0.00 0.00 69 1015.4
20260504042335 48 117 0.0 0.0 0.00 0.00 0.00 69 1015.3
20260504041833 48 117 0.0 0.0 0.00 0.00 0.00 69 1015.4
20260504041332 48 117 0.0 0.0 0.00 0.00 0.00 69 1015.2
20260504040834 48 117 0.0 0.0 0.00 0.00 0.00 68 1015.2
20260504040332 48 117 0.0 0.0 0.00 0.00 0.00 68 1015.3
20260504035832 48 117 0.0 0.0 0.00 0.00 0.00 67 1015.3
20260504035333 48 117 0.0 0.9 0.00 0.00 0.00 67 1015.3
20260504034831 48 117 0.0 0.9 0.00 0.00 0.00 67 1015.3
20260504034328 48 117 0.0 0.9 0.00 0.00 0.00 66 1015.5
20260504034054 48 117 0.0 0.0 0.00 0.00 0.00 66 1015.4
20260504033330 48 117 0.0 0.0 0.00 0.00 0.00 65 1015.4
20260504033043 48 117 0.0 0.0 0.00 0.00 0.00 65 1015.3
20260504032927 48 117 0.0 0.0 0.00 0.00 0.00 65 1015.4